Wind_Speed
8 4 10 12 12 7 7 5 5 2 7 5 9 7 7 7 10 4 5 3 4 1 4 7 11 13 9 10 12 13 14 15 20 23 23 22 28 27 29 28 28 31 29
8 10 13 12 9 7 4 5 8 7 2 4 6 3 2 4 5 5 5 5 4 4 6 7 6 9 12 11 12 16 17 17 19 28 26 27 26 26 29 32 29 27 28
4 8 10 9 7 6 9 6 6 3 2 4 6 7 7 5 4 5 5 6 6 7 8 11 9 12 12 12 16 16 16 18 17 21 28 25 27 27 28 29 30 30 25
7 7 8 6 6 4 6 7 7 7 8 6 5 5 5 6 7 7 8 7 7 8 9 12 13 13 14 15 19 18 16 21 19 19 22 27 26 26 25 29 31 27 30
9 8 8 7 8 7 7 7 7 6 4 5 5 6 8 9 9 8 8 9 10 12 14 14 14 15 19 16 20 20 23 17 17 18 20 23 26 28 28 27 29 31 32
9 8 8 8 7 7 6 6 5 5 5 6 8 10 11 11 11 12 14 16 15 16 18 17 16 18 18 20 25 23 24 22 20 18 21 24 30 31 31 30 32 36 37
9 7 7 7 7 6 5 4 4 5 6 8 9 10 11 13 14 13 13 16 17 19 17 17 17 16 18 16 18 23 25 22 21 22 25 27 30 33 34 34 29 34 36
8 8 7 6 4 4 4 4 6 6 8 8 10 11 12 13 15 16 15 17 20 18 17 17 18 19 19 20 25 24 22 19 16 16 22 28 27 21 29 32 32 29 30
6 6 6 5 5 5 6 6 8 9 10 12 11 12 13 14 16 19 18 17 18 19 21 20 22 21 20 22 24 24 25 22 15 19 26 19 20 21 24 29 24 28 31
4 4 5 5 6 6 6 8 10 10 12 12 13 14 16 19 18 19 18 17 17 19 19 22 23 22 27 25 24 25 24 22 20 25 21 19 21 20 21 24 21 24 26
5 6 6 5 6 6 7 9 10 12 14 14 15 16 17 16 17 17 17 20 18 20 20 22 22 24 21 24 28 30 27 23 24 25 18 20 18 17 16 15 22 21 25
6 7 7 7 7 8 10 10 13 14 15 17 17 16 14 17 14 11 12 18 20 22 23 22 23 28 27 29 33 34 30 27 25 20 19 20 19 18 17 20 21 21 23
8 8 9 11 12 13 14 15 15 17 16 17 15 16 14 11 13 17 16 20 18 22 28 26 26 28 29 33 36 36 32 30 24 21 22 21 19 19 21 20 20 22 21
9 10 12 13 14 15 15 16 17 18 18 17 15 16 16 17 16 17 20 19 19 26 22 23 26 29 32 31 30 32 31 31 26 21 23 24 21 20 20 20 20 22 22
10 11 13 14 14 14 15 15 16 17 17 17 17 17 18 20 19 20 23 23 23 24 29 33 31 31 31 30 33 33 30 29 30 29 26 25 26 23 22 20 19 22 23
11 11 10 11 12 14 15 17 19 20 20 20 20 22 24 25 27 26 25 25 28 32 36 36 33 33 33 33 34 33 34 33 34 33 30 28 28 25 25 22 22 22 22
11 10 10 11 12 13 14 16 18 18 21 23 23 24 24 27 28 29 31 31 32 34 37 39 35 34 33 33 33 33 35 36 34 34 30 30 27 27 29 26 24 24 24
11 12 12 12 13 14 15 16 18 20 21 22 23 23 26 30 32 29 26 27 31 31 30 28 28 30 33 33 31 31 35 37 39 40 35 34 31 31 32 32 29 27 26
13 13 14 15 15 16 17 18 19 20 22 24 26 29 29 31 31 28 26 31 31 26 26 29 26 27 30 36 30 29 28 32 41 40 10 17 21 24 28 28 28 28 30
16 18 17 16 16 16 17 19 21 24 24 28 30 30 29 28 25 20 38 34 31 31 31 19 21 28 37 36 31 34 38 43 40 31 31 31 26 28 34 29 31 27 30
17 16 16 18 19 20 22 23 24 26 29 30 30 28 34 32 32 30 35 29 39 28 39 37 26 23 27 35 31 29 33 38 38 41 36 37 36 33 35 31 33 35 34
15 15 16 18 21 22 23 25 26 28 31 30 33 35 27 32 28 32 34 30 36 29 29 31 28 30 31 30 27 20 20 19 17 18 19 20 20 21 23 23 23 25 30
15 17 19 21 23 24 26 29 28 26 28 36 26 21 27 29 25 22 22 26 32 30 21 22 30 25 19 14 11 14 15 16 16 17 18 20 19 21 20 19 19 19 20
17 19 21 24 26 25 28 33 29 26 30 26 23 25 23 22 17 18 24 23 20 21 20 18 15 12 9 14 13 8 8 13 18 15 16 17 18 19 18 17 16 16 17
21 21 24 26 25 27 28 25 28 27 24 22 20 18 14 18 22 26 21 20 19 15 13 14 13 14 10 7 5 6 12 15 18 20 21 20 18 18 18 17 22 23 21
19 18 20 23 21 21 21 22 22 22 18 15 17 19 20 23 21 16 16 17 17 17 19 14 15 11 9 8 13 15 17 17 21 24 24 21 17 18 22 16 17 21 21
Wind_Direction
253 292 256 246 232 215 166 125 103 229 235 271 264 264 238 249 265 240 113 170 207 272 351 336 341 327 316 328 320 320 311 306 298 299 303 307 307 313 311 312 310 311 310
248 221 216 229 245 205 234 315 295 257 226 251 256 259 212 154 158 158 170 237 265 283 302 313 323 303 311 322 308 315 313 309 303 303 308 309 311 313 305 308 308 308 303
184 178 185 184 182 234 270 258 205 195 197 156 128 145 153 162 187 217 225 246 287 302 324 335 312 307 305 306 316 320 310 302 301 298 301 311 306 313 308 307 310 311 307
137 150 158 205 232 189 174 165 160 163 157 144 167 179 201 222 229 235 249 268 285 305 297 282 288 289 296 293 309 312 316 290 297 302 301 306 312 313 311 312 311 313 310
149 155 154 151 148 153 149 161 153 148 151 197 220 243 255 258 254 257 269 279 277 286 295 298 292 285 288 300 310 318 322 310 299 299 302 306 311 318 319 313 310 313 312
126 127 131 148 146 147 159 151 163 196 232 257 270 275 276 270 267 266 267 267 275 284 294 297 295 294 304 295 307 325 326 316 313 309 303 303 310 313 315 311 311 312 313
140 145 153 158 155 154 163 202 222 252 261 267 274 281 279 279 278 272 264 267 270 285 287 284 288 294 290 290 291 317 325 325 312 309 306 311 309 311 324 321 317 311 306
157 153 161 167 177 185 191 238 263 265 265 270 272 270 273 276 274 273 270 265 270 272 279 284 297 295 287 281 287 311 318 309 301 294 289 287 293 318 323 328 327 318 314
163 165 178 197 215 229 245 254 262 265 268 269 276 281 281 277 273 268 268 267 266 275 281 285 282 279 282 288 292 305 316 315 311 297 302 310 327 320 326 320 316 323 326
192 208 218 224 239 242 256 262 266 275 283 280 279 276 274 272 271 263 265 270 267 275 283 283 288 284 283 286 293 297 304 312 302 317 325 336 316 319 325 318 313 320 319
214 225 229 237 250 250 258 267 275 276 277 282 283 284 281 281 283 267 264 263 264 274 282 290 290 292 297 288 290 291 295 298 303 313 319 310 308 312 317 308 309 310 315
221 228 239 254 262 277 264 276 277 280 281 285 295 289 284 284 283 276 275 261 267 275 279 284 288 290 291 288 286 287 286 288 289 294 291 300 304 309 311 312 317 315 309
227 239 250 258 263 268 270 277 276 276 275 281 280 285 286 289 287 288 280 281 280 282 285 289 291 290 285 284 283 283 282 274 276 279 281 291 296 304 310 315 313 316 318
253 261 265 266 267 266 268 268 265 269 269 274 276 278 279 281 277 277 287 283 282 278 284 284 289 287 288 284 281 277 277 275 264 261 276 284 290 296 301 306 308 315 315
271 267 268 271 268 265 262 263 261 266 270 271 274 279 282 281 281 278 276 278 275 276 279 279 281 283 284 279 276 268 266 268 263 255 270 272 281 285 290 297 300 305 310
269 268 269 269 271 270 271 270 272 275 278 281 284 279 277 275 279 280 277 274 272 273 276 278 276 277 277 277 276 274 274 266 261 258 259 262 266 274 281 286 292 294 300
256 257 266 276 275 274 274 276 280 282 280 276 280 281 281 285 287 287 286 285 279 276 273 275 275 277 276 273 272 273 273 268 265 259 255 261 263 272 271 274 278 282 289
249 260 273 279 277 278 278 280 283 285 288 289 290 293 291 286 287 289 292 282 276 274 275 276 273 273 269 269 270 279 277 275 270 262 258 256 255 261 264 272 276 277 284
263 270 273 277 280 281 281 282 282 281 282 286 288 286 285 287 284 276 275 274 270 266 270 270 271 290 286 287 303 293 293 300 305 337 313 287 289 280 270 270 273 281 282
270 269 273 275 278 280 280 280 281 282 283 285 286 285 291 294 297 299 318 293 279 267 268 277 291 293 287 294 300 294 307 297 294 300 297 289 293 284 304 289 284 292 287
273 273 266 270 271 273 274 280 284 283 283 282 280 283 286 290 284 296 318 302 288 287 317 311 304 281 289 290 300 298 293 295 294 299 304 306 298 302 298 293 285 280 277
271 274 277 281 286 288 287 285 285 289 290 295 302 293 289 292 299 302 307 296 305 303 292 293 284 291 299 301 301 299 304 315 320 319 315 314 312 309 305 299 295 290 292
275 281 284 284 285 285 282 286 285 288 294 296 284 304 303 303 303 306 303 303 304 301 293 283 299 299 298 297 299 301 304 307 310 316 318 316 311 306 298 298 300 299 296
278 278 281 285 288 293 292 289 287 296 301 301 315 307 308 303 296 298 307 305 306 303 297 298 295 295 299 303 313 324 278 295 318 323 312 310 308 308 307 306 306 306 306
285 289 292 294 294 296 297 303 310 309 317 325 320 319 312 311 305 310 318 320 317 318 315 320 311 299 306 316 270 287 308 318 322 321 318 310 305 298 295 295 306 309 304
287 289 291 294 296 302 315 320 323 321 325 322 317 313 315 318 316 312 310 330 320 320 313 309 302 298 275 283 254 289 315 318 325 325 318 312 307 301 306 300 307 305 302
Height
1540 1539 1543 1545 1550 1551 1549 1546 1544 1549 1552 1552 1554 1553 1549 1556 1561 1560 1559 1563 1566 1565 1564 1563 1563 1565 1565 1563 1562 1561 1557 1556 1551 1545 1545 1539 1533 1529 1526 1522 1518 1513 1511
1540 1540 1542 1545 1547 1548 1547 1546 1547 1550 1551 1553 1552 1554 1554 1555 1558 1559 1559 1563 1565 1564 1562 1561 1562 1565 1563 1562 1560 1556 1553 1553 1548 1541 1538 1536 1530 1527 1520 1516 1512 1510 1506
1538 1539 1542 1544 1546 1546 1546 1548 1549 1550 1551 1552 1552 1555 1557 1557 1557 1560 1559 1560 1561 1561 1561 1562 1562 1560 1562 1560 1557 1552 1550 1549 1545 1541 1534 1532 1527 1522 1515 1511 1506 1503 1500
1539 1540 1542 1544 1545 1546 1548 1548 1549 1551 1552 1553 1555 1557 1557 1558 1556 1557 1559 1560 1559 1559 1560 1561 1561 1560 1558 1556 1553 1550 1548 1545 1542 1537 1533 1528 1525 1520 1513 1506 1499 1497 1491
1541 1542 1543 1544 1546 1547 1549 1550 1550 1551 1553 1556 1556 1556 1556 1556 1556 1557 1558 1558 1558 1557 1558 1557 1557 1556 1554 1551 1548 1545 1542 1540 1535 1534 1528 1526 1521 1514 1509 1502 1497 1491 1486
1542 1544 1546 1547 1547 1548 1550 1550 1551 1552 1553 1554 1554 1554 1554 1554 1554 1554 1556 1556 1556 1555 1555 1554 1553 1552 1549 1547 1545 1540 1539 1533 1529 1527 1524 1520 1516 1512 1507 1498 1490 1489 1479
1545 1546 1548 1548 1549 1549 1550 1553 1553 1554 1554 1555 1554 1553 1554 1554 1553 1553 1553 1554 1554 1552 1551 1551 1550 1549 1548 1547 1542 1539 1533 1529 1527 1523 1520 1516 1511 1507 1501 1494 1485 1486 1480
1546 1546 1547 1549 1551 1550 1550 1552 1554 1554 1553 1554 1553 1553 1552 1552 1550 1550 1550 1550 1549 1548 1546 1544 1543 1542 1543 1542 1538 1534 1530 1527 1523 1521 1518 1514 1508 1501 1501 1492 1483 1483 1476
1546 1546 1547 1549 1550 1550 1550 1550 1552 1552 1551 1551 1550 1549 1548 1548 1546 1546 1546 1545 1545 1542 1539 1538 1538 1537 1535 1535 1531 1529 1524 1522 1519 1517 1512 1506 1501 1498 1492 1488 1488 1479 1471
1546 1546 1547 1547 1548 1548 1549 1549 1549 1549 1549 1548 1547 1546 1543 1542 1541 1541 1540 1539 1539 1538 1536 1534 1533 1531 1531 1528 1525 1524 1520 1517 1514 1508 1504 1498 1499 1491 1487 1487 1483 1475 1472
1545 1546 1545 1545 1546 1546 1546 1547 1547 1547 1546 1544 1543 1540 1538 1535 1535 1534 1534 1534 1534 1534 1531 1529 1528 1526 1524 1521 1519 1517 1514 1511 1507 1501 1498 1499 1496 1491 1486 1485 1481 1476 1468
1544 1544 1543 1544 1544 1544 1543 1543 1543 1543 1541 1538 1536 1534 1532 1529 1529 1529 1528 1528 1529 1528 1526 1524 1522 1519 1517 1516 1514 1511 1509 1505 1501 1498 1498 1495 1490 1486 1482 1478 1473 1469 1467
1541 1542 1542 1542 1542 1541 1540 1540 1540 1539 1536 1535 1533 1530 1528 1527 1527 1524 1524 1523 1523 1522 1519 1516 1515 1513 1511 1508 1504 1502 1500 1497 1495 1494 1491 1487 1484 1480 1476 1473 1470 1467 1461
1539 1539 1538 1538 1537 1537 1536 1536 1535 1533 1532 1530 1529 1526 1524 1523 1522 1521 1519 1518 1516 1514 1512 1510 1508 1506 1503 1500 1496 1492 1489 1487 1486 1485 1484 1481 1478 1475 1472 1469 1465 1461 1458
1536 1535 1534 1533 1533 1532 1531 1531 1530 1529 1528 1526 1525 1523 1521 1518 1516 1515 1514 1513 1511 1510 1506 1503 1500 1497 1494 1491 1486 1482 1480 1478 1476 1475 1473 1472 1471 1469 1466 1463 1460 1457 1453
1532 1531 1530 1529 1528 1528 1527 1526 1524 1523 1522 1521 1519 1517 1514 1512 1509 1507 1505 1503 1501 1499 1496 1492 1489 1487 1484 1481 1477 1474 1471 1466 1466 1465 1463 1461 1460 1460 1458 1456 1454 1451 1448
1528 1528 1527 1526 1525 1524 1523 1522 1520 1518 1515 1513 1510 1508 1506 1503 1500 1497 1495 1493 1490 1487 1484 1481 1478 1476 1472 1470 1467 1464 1460 1457 1453 1451 1450 1449 1449 1448 1448 1445 1444 1443 1441
1525 1525 1524 1523 1522 1521 1519 1517 1515 1513 1510 1507 1504 1501 1499 1495 1491 1489 1487 1485 1481 1476 1472 1470 1467 1465 1462 1459 1455 1452 1450 1448 1444 1439 1437 1436 1433 1435 1435 1437 1435 1434 1432
1522 1521 1520 1519 1517 1516 1515 1513 1510 1507 1504 1500 1497 1494 1490 1486 1483 1481 1479 1476 1473 1471 1468 1462 1458 1456 1453 1448 1445 1443 1439 1440 1435 1423 1411 1425 1426 1424 1424 1425 1424 1425 1424
1517 1516 1515 1515 1513 1511 1509 1505 1502 1499 1496 1493 1489 1485 1482 1480 1476 1472 1462 1462 1464 1456 1454 1453 1451 1448 1450 1445 1441 1436 1434 1434 1429 1428 1424 1426 1418 1417 1417 1416 1416 1417 1416
1512 1510 1509 1508 1505 1503 1500 1498 1495 1492 1488 1484 1479 1476 1473 1470 1467 1465 1459 1459 1457 1450 1442 1445 1443 1441 1440 1438 1436 1432 1430 1426 1421 1419 1414 1412 1410 1409 1409 1410 1408 1407 1405
1507 1505 1503 1500 1499 1497 1494 1491 1488 1485 1482 1478 1476 1471 1468 1465 1461 1456 1451 1451 1449 1445 1442 1440 1439 1436 1434 1432 1430 1427 1425 1422 1419 1416 1413 1410 1408 1407 1405 1404 1402 1400 1398
1502 1500 1497 1495 1492 1488 1486 1483 1480 1477 1473 1468 1465 1465 1462 1460 1456 1452 1448 1446 1442 1438 1436 1434 1432 1430 1427 1426 1425 1424 1423 1421 1418 1416 1412 1408 1406 1405 1403 1401 1398 1395 1393
1497 1494 1490 1487 1484 1482 1480 1476 1471 1468 1467 1464 1456 1460 1457 1454 1452 1448 1445 1441 1437 1434 1432 1429 1428 1426 1425 1423 1422 1423 1420 1417 1415 1413 1409 1406 1405 1402 1399 1396 1394 1391 1388
1489 1487 1484 1481 1479 1476 1472 1467 1466 1464 1461 1457 1456 1455 1453 1452 1447 1443 1440 1437 1434 1430 1428 1426 1425 1424 1422 1421 1421 1418 1416 1414 1412 1409 1406 1402 1400 1398 1395 1392 1390 1387 1385
1484 1481 1478 1475 1471 1470 1466 1465 1463 1461 1457 1456 1454 1453 1451 1448 1444 1440 1436 1436 1434 1431 1428 1426 1423 1422 1420 1420 1414 1414 1413 1411 1409 1406 1401 1397 1395 1394 1391 1388 1386 1384 1381